Вернуться в каталог

CZ-6A DEB

АктивенSSO
NORAD 54301·DEBRIS·🇨🇳 China

Запущен Nov 11, 2022 с Taiyuan Satellite Launch Center

Loading…

Ближайшие Пролёты (ближайшие 24 часа)

TLE

СвежийSource: Space-Track

Эпоха: Sep 14, 2026, 18:08 UTC

1 54301U 22151AU  26257.75607637  .00000366  00000-0  22443-3 0  9990
2 54301  98.8945 267.4553 0053288  66.9384 293.7393 14.11180421197019

Отслеживайте CZ-6A DEB в реальном времени с AllMySat

Download on the App Store